Lapse_Rate
8.7 8.9 9.0 9.0 7.9 9.1 9.0 9.0 9.1 8.9 8.9 7.8 7.4 7.6 7.1 8.6 8.1 7.2 6.8 6.7 6.5 6.0 6.0 7.8 9.6 9.4 9.5 9.5 9.2 9.1 8.4 9.0 8.8 6.5 5.0 5.4 6.3 7.6 9.5 9.7 9.8 9.3 8.1
8.3 8.6 8.9 9.0 8.9 8.2 7.1 9.1 8.6 9.2 9.5 9.7 9.5 9.5 9.3 9.1 9.4 9.0 7.3 5.9 5.9 5.3 6.0 6.8 9.3 9.6 9.6 9.3 9.5 7.9 8.4 8.9 6.6 7.0 5.9 6.4 6.7 8.5 7.9 9.8 9.7 9.6 9.7
8.0 8.4 8.6 8.8 9.0 8.8 7.7 8.5 9.3 9.2 9.4 9.5 9.7 9.6 9.5 9.4 9.0 7.9 7.0 6.9 5.6 5.1 4.6 5.6 6.5 8.5 9.5 9.7 9.4 7.8 8.5 8.7 7.3 7.0 7.7 6.8 7.2 8.7 9.4 9.2 9.8 9.6 9.6
8.4 8.6 8.7 8.7 8.9 8.9 8.1 8.1 7.4 8.1 9.3 9.4 9.3 9.1 9.1 8.9 9.1 8.0 8.1 7.2 5.2 4.2 4.6 4.4 5.3 5.7 7.4 8.0 8.9 8.3 8.3 8.9 7.5 5.4 4.3 3.8 6.0 8.3 8.1 9.3 9.5 9.8 9.6
8.3 8.4 8.7 8.9 9.1 8.2 7.3 6.5 7.1 9.2 9.0 9.1 9.2 9.3 9.1 9.4 9.2 9.4 9.2 9.5 8.9 7.3 6.5 5.5 4.8 5.0 6.3 7.0 8.1 7.1 7.6 8.0 4.5 2.3 0.9 4.0 4.8 5.4 8.1 7.9 8.5 9.5 9.8
8.2 8.6 8.9 9.1 9.1 8.8 7.7 6.8 6.7 7.1 9.0 9.3 9.3 9.0 8.8 9.1 9.3 9.4 9.3 9.2 9.4 9.3 7.7 7.8 6.8 5.5 5.9 6.7 7.3 7.9 5.5 3.0 4.0 1.5 1.9 3.4 2.5 4.2 6.0 7.5 8.1 8.5 9.2
8.3 8.5 8.7 8.8 8.8 8.7 8.4 8.2 8.6 7.2 6.9 7.0 8.3 9.2 9.1 8.9 9.0 9.0 9.2 9.1 9.4 9.3 7.9 7.3 7.9 8.0 6.4 7.3 8.0 6.3 2.8 3.7 2.5 1.6 1.8 3.3 3.3 4.0 4.6 7.8 8.2 8.3 8.5
8.4 8.6 8.7 8.7 8.7 8.7 8.8 7.5 7.2 8.0 6.9 6.5 6.1 6.4 7.9 9.3 9.2 8.5 8.9 8.9 9.2 9.2 8.5 6.7 6.2 7.3 8.0 7.3 7.1 5.1 3.2 2.1 2.0 -0.0 1.1 0.5 2.4 2.9 4.7 7.3 6.4 7.7 8.4
8.4 8.6 8.8 8.8 8.8 8.8 8.8 8.8 8.6 8.8 7.9 7.0 6.7 6.3 6.0 6.2 8.3 8.6 8.1 8.2 8.2 8.6 8.3 6.9 5.3 5.9 7.0 6.4 5.2 4.7 4.1 0.2 0.5 0.2 0.7 -0.1 0.3 1.0 5.0 5.2 5.5 5.8 7.7
8.4 8.6 8.8 8.8 9.0 9.1 9.2 9.2 9.1 9.0 9.1 8.1 7.6 8.9 7.3 7.6 8.1 7.2 6.9 6.4 7.0 7.7 8.2 8.4 6.2 5.3 5.9 4.7 3.6 3.6 3.6 0.7 -1.0 -1.6 -1.4 1.6 0.2 0.7 4.8 3.3 2.4 3.4 5.6
8.3 8.5 8.7 8.9 9.0 9.1 9.2 9.1 9.2 9.2 9.2 9.2 9.1 7.9 7.3 7.0 9.2 8.9 6.6 6.9 6.9 7.6 7.6 7.1 6.2 5.1 4.3 3.3 2.5 2.6 1.3 1.6 -0.3 -1.0 -0.3 0.7 1.7 0.6 2.3 1.2 1.0 1.2 2.6
8.4 8.6 8.8 8.8 9.0 9.0 9.1 9.2 9.1 9.1 9.2 9.4 9.3 9.0 9.0 8.7 9.1 9.1 8.8 8.5 8.0 7.9 7.1 5.9 4.7 4.8 3.2 2.7 2.0 1.7 1.6 0.6 0.3 -0.5 -0.1 0.1 0.9 1.5 1.2 0.5 0.8 1.3 1.0
8.4 8.6 8.7 8.8 8.9 9.0 9.0 9.2 9.3 9.3 9.3 9.4 9.2 9.2 9.1 9.2 8.7 8.8 8.3 8.0 7.5 8.1 4.7 4.3 4.0 3.6 2.3 1.8 1.7 1.4 0.8 0.6 0.6 0.5 -0.3 0.4 1.7 1.0 0.7 1.1 0.6 1.7 1.2
8.3 8.5 8.6 8.7 8.8 9.0 9.0 9.2 9.2 9.3 9.4 9.3 9.1 9.0 9.0 9.1 9.1 8.5 8.5 6.0 6.4 4.2 3.8 4.0 4.2 3.5 1.9 1.6 0.8 0.7 0.1 0.5 0.4 0.9 0.1 1.1 0.9 0.1 0.4 1.4 2.1 1.4 1.1
8.2 8.4 8.5 8.7 8.9 9.0 9.1 9.3 9.3 9.4 9.4 9.3 9.1 9.0 9.2 9.2 9.2 8.1 7.3 6.2 4.8 4.2 3.7 3.1 3.0 1.9 1.3 0.9 0.1 0.3 0.0 -0.3 0.0 0.1 1.0 2.1 0.6 1.0 0.9 0.9 0.8 1.8 2.0
8.2 8.4 8.6 8.7 8.8 8.9 9.0 9.2 9.3 9.3 9.4 9.2 9.2 9.2 9.2 9.2 9.1 9.0 6.7 4.2 3.7 3.9 2.4 1.7 1.3 0.7 0.9 -0.9 -0.7 0.2 0.3 0.3 0.2 0.3 2.0 2.7 1.1 -0.1 0.6 1.1 0.9 2.3 3.4
8.3 8.4 8.6 8.8 8.8 9.0 9.2 9.2 9.3 9.4 9.3 9.2 9.3 9.3 9.3 9.1 9.0 9.2 8.0 4.4 2.6 3.1 2.3 2.0 1.1 1.0 1.0 -1.2 -1.2 -0.8 0.5 -0.1 0.3 0.6 1.1 1.1 1.0 1.0 1.1 0.1 -0.1 -0.2 -0.1
8.4 8.6 8.9 9.0 9.2 9.3 9.3 9.3 9.5 9.4 9.2 9.2 9.3 9.3 9.3 9.1 9.1 8.9 8.6 5.5 2.9 2.4 2.6 2.0 2.3 2.0 1.7 -0.9 -1.3 -1.2 1.0 0.7 -0.0 0.4 0.8 0.1 0.4 0.5 0.1 0.0 0.6 1.8 2.6
8.8 9.0 9.2 9.3 9.3 9.3 9.4 9.4 9.3 9.3 9.2 9.1 9.2 9.3 9.2 9.1 8.9 8.8 8.8 7.1 5.4 3.3 2.9 3.2 2.0 2.7 0.7 -1.4 -1.4 0.7 1.5 0.4 0.6 1.6 2.0 1.0 0.0 0.1 0.8 0.8 1.3 2.6 2.7
9.1 9.1 9.3 9.3 9.3 9.4 9.5 9.3 9.1 9.1 9.0 9.1 9.2 9.3 9.3 9.1 8.9 8.9 8.8 8.3 5.8 4.7 3.2 2.9 2.2 1.2 0.3 -1.7 -1.3 1.5 0.7 0.4 0.8 1.2 1.4 0.8 0.6 0.3 0.7 1.7 1.8 1.1 1.7
9.1 9.4 9.3 9.2 9.2 9.4 9.3 9.0 9.1 8.9 9.2 9.3 9.3 9.2 9.2 9.1 9.1 9.1 9.0 8.7 5.2 4.0 3.0 2.2 0.6 0.8 -0.2 -0.8 0.6 1.1 1.2 0.4 1.4 1.7 1.5 0.9 0.8 0.9 2.4 3.9 4.0 2.7 2.7
9.1 9.2 9.1 9.2 9.4 9.5 9.3 9.2 9.0 9.2 9.3 9.3 9.2 9.2 9.1 9.4 9.4 9.0 9.0 8.8 5.5 4.7 3.5 1.9 0.9 0.9 -0.6 -1.6 -0.1 2.8 2.8 0.8 0.5 1.7 1.3 0.9 1.5 2.4 2.9 3.3 1.0 0.8 2.2
9.2 9.3 9.2 9.1 9.2 9.4 9.5 9.0 9.1 9.3 9.2 9.1 9.0 9.0 8.7 8.9 9.1 8.8 8.7 6.9 5.0 3.9 2.8 1.8 1.8 0.2 -0.9 -1.0 -0.2 1.5 2.0 1.1 1.0 0.5 0.9 0.8 1.8 3.5 2.2 1.3 1.1 1.1 4.3
9.0 9.2 9.1 9.0 8.9 9.2 9.3 9.4 9.3 9.3 9.2 8.9 8.7 8.6 8.3 7.3 6.9 7.1 6.4 4.9 3.7 2.4 1.4 1.3 0.8 0.7 1.9 2.8 2.8 2.1 1.2 1.2 0.5 1.0 1.4 1.8 3.1 3.8 2.7 2.3 2.7 4.9 5.2
9.0 9.1 8.9 8.9 9.0 9.2 9.2 9.4 9.4 9.2 9.0 8.8 8.7 8.5 7.7 5.2 3.8 4.2 3.1 2.9 3.7 2.6 1.3 0.7 0.1 -0.4 1.0 0.8 1.2 2.2 2.1 1.4 1.4 1.9 2.9 4.3 4.9 4.4 4.4 5.0 5.7 6.0 4.6
8.9 8.9 8.9 8.9 9.0 9.1 9.1 9.2 9.1 7.5 6.2 5.8 5.3 5.3 5.3 4.3 2.7 3.0 2.5 -0.1 0.7 0.5 1.3 1.3 0.5 0.0 1.2 2.0 2.9 2.0 1.2 1.2 1.6 3.0 4.4 5.4 4.1 5.7 7.8 7.1 8.3 6.2 4.3
Wind_Speed
11 5 7 7 7 7 11 14 16 17 14 13 14 14 15 14 14 15 22 23 22 23 20 14 15 13 14 15 14 12 12 9 7 6 2 2 4 6 7 8 8 9 10
6 7 8 10 10 11 10 9 13 15 15 13 13 13 13 14 13 14 16 23 23 23 17 17 16 17 14 16 16 13 11 11 11 8 5 4 4 7 8 8 7 8 8
6 8 10 11 11 12 12 11 8 11 14 16 12 12 12 12 13 14 14 16 21 21 19 20 17 15 14 13 16 14 18 13 12 14 5 3 6 7 8 10 8 8 7
10 11 11 11 13 13 13 13 11 8 10 14 14 17 14 15 14 13 13 14 20 21 20 21 20 19 14 16 15 14 15 14 13 6 6 3 1 5 5 8 10 9 9
11 11 12 12 13 14 14 13 13 10 8 10 14 13 17 14 13 13 16 16 16 20 23 21 20 19 16 18 18 16 18 13 7 7 6 8 5 4 6 7 8 9 10
11 12 12 12 13 13 14 14 15 14 13 11 12 16 19 18 14 14 13 12 12 13 20 22 19 19 18 19 17 18 19 11 10 9 8 9 5 8 7 7 8 11 10
13 13 14 13 13 15 14 13 15 15 14 12 12 13 17 19 21 18 14 16 12 12 15 17 18 16 19 18 17 16 15 16 13 11 8 7 7 2 8 7 7 6 7
14 15 15 12 11 12 14 15 14 15 15 15 13 12 14 12 13 16 14 14 13 14 15 15 17 19 19 17 17 12 13 12 13 16 13 8 6 3 4 6 8 6 6
16 17 16 13 12 12 13 14 14 15 15 16 15 15 13 15 14 18 16 13 16 14 16 15 17 17 18 16 14 11 15 13 13 11 11 7 5 3 2 1 4 4 7
21 20 16 14 12 11 12 12 13 15 15 16 15 14 18 18 16 15 17 18 17 17 18 17 16 16 16 13 14 12 13 14 10 10 12 12 8 7 4 5 4 4 2
20 18 17 15 14 12 13 12 12 14 15 16 16 17 17 19 18 17 17 16 17 17 18 15 15 15 12 14 14 13 14 15 14 14 15 13 13 9 6 5 6 6 3
16 16 16 16 14 14 12 12 12 13 14 15 16 17 17 18 18 18 18 16 16 16 16 13 14 14 14 15 16 15 14 16 17 17 17 15 9 12 10 6 8 7 4
17 16 15 15 15 15 11 12 13 14 15 15 16 17 18 18 18 19 16 17 15 16 10 13 14 15 15 15 15 16 16 17 18 20 20 19 18 13 8 8 8 8 5
17 17 16 17 16 15 13 13 14 14 15 16 16 17 18 19 18 18 17 15 14 11 13 15 16 15 15 16 15 15 16 16 16 18 18 20 17 15 13 10 9 8 6
19 18 18 17 17 15 13 15 17 16 16 16 16 17 17 18 19 16 15 14 14 12 14 14 12 12 13 12 16 16 16 17 16 15 15 14 16 21 15 10 10 10 7
18 19 18 17 16 13 15 18 19 19 16 16 17 17 17 18 18 17 14 10 7 8 6 9 12 13 9 16 20 19 16 17 18 17 15 16 20 18 18 14 13 9 9
18 17 19 17 13 16 18 20 20 20 17 17 17 17 17 18 18 18 15 12 5 6 3 5 7 10 10 20 22 22 16 19 17 17 17 13 10 15 12 13 13 9 6
18 19 20 21 22 20 22 21 20 19 19 18 18 18 18 18 18 18 16 14 7 8 8 8 8 9 9 22 21 20 17 15 18 19 19 18 17 14 15 13 10 10 9
22 23 21 22 22 22 21 19 19 18 19 20 19 19 18 19 19 18 16 13 10 8 9 9 10 10 8 19 19 18 15 15 17 15 15 17 17 22 23 14 11 10 8
23 22 23 22 22 21 19 20 18 18 19 19 20 19 18 19 20 19 18 11 11 11 8 9 10 11 11 18 25 19 12 16 13 13 15 22 19 22 18 13 13 11 10
25 24 23 20 21 21 20 19 19 20 19 20 19 19 19 20 20 19 17 14 10 9 9 10 8 10 12 16 22 23 15 14 13 12 11 11 24 22 14 13 12 12 11
26 24 21 21 21 20 18 20 20 20 19 19 19 19 20 16 14 18 17 15 10 11 9 9 8 7 13 22 13 11 11 21 15 13 9 13 23 19 13 9 15 13 9
23 22 20 21 22 20 19 21 21 18 18 19 19 19 19 17 16 16 16 11 9 9 8 8 8 8 9 10 21 21 17 20 14 11 17 25 21 16 9 15 14 9 7
23 22 23 23 23 20 19 18 20 18 18 19 19 16 16 15 15 12 10 8 6 6 7 8 7 8 9 10 11 14 15 22 16 19 15 16 15 11 11 10 8 6 6
24 22 22 21 23 21 20 18 17 16 17 17 16 15 12 11 12 11 7 5 8 9 11 10 12 13 12 14 20 20 15 13 16 17 11 11 10 10 9 8 8 7 7
24 22 23 22 22 19 18 16 14 13 14 15 11 10 10 9 7 8 4 9 2 6 5 5 10 6 15 25 25 27 29 32 27 13 12 11 10 10 10 9 9 7 7
Wind_Direction
306 353 10 354 337 301 261 249 242 233 222 220 220 219 223 223 226 227 226 224 223 220 222 225 219 221 223 223 212 213 213 213 187 148 139 225 222 213 203 203 199 187 202
329 27 33 28 17 15 353 275 249 251 229 232 229 230 228 229 231 230 228 222 221 217 217 222 224 217 225 224 223 208 201 206 185 192 156 183 193 220 214 208 208 195 203
46 32 21 21 14 14 4 1 312 252 250 234 243 235 237 240 233 231 230 223 222 219 215 214 219 219 216 221 217 205 208 204 190 200 177 171 223 176 193 212 214 195 220
32 27 21 17 12 7 358 350 352 319 255 251 236 242 238 236 236 235 232 226 220 221 220 218 214 215 212 215 214 205 209 210 194 193 273 286 286 202 185 208 211 210 217
45 32 19 13 16 6 357 352 345 345 321 256 243 246 245 251 253 250 242 235 229 224 226 222 218 216 215 215 213 203 205 206 159 191 157 225 229 217 258 196 195 209 213
36 27 23 11 9 6 3 352 350 345 342 325 267 248 257 258 258 257 253 243 237 229 224 225 222 221 218 215 212 207 201 180 194 191 188 183 179 197 202 238 192 202 198
29 15 8 2 357 356 359 355 348 341 338 333 314 280 264 260 265 260 257 254 247 236 232 223 223 222 222 219 212 201 190 190 185 190 187 223 217 186 193 220 178 197 154
12 0 354 348 346 347 347 350 349 338 333 329 324 307 290 273 262 257 255 252 249 245 231 219 221 226 223 221 213 191 192 184 187 186 200 181 197 179 202 194 168 176 176
353 345 339 338 335 336 340 340 337 339 335 327 323 314 301 290 280 270 259 255 250 249 243 217 212 218 223 215 204 194 190 179 192 181 171 137 132 116 154 166 199 175 184
336 332 333 331 328 330 329 333 329 331 329 330 323 317 315 303 290 281 265 254 251 244 243 233 208 205 214 196 192 190 193 174 172 161 151 160 141 143 159 113 82 38 79
329 328 326 327 324 322 328 331 332 329 331 328 326 321 315 310 301 293 283 263 253 245 240 227 209 196 193 185 188 188 172 178 166 161 156 159 153 143 136 117 113 104 99
320 316 317 314 316 322 328 333 333 330 332 329 327 323 318 314 306 302 290 276 261 250 241 207 193 191 187 187 185 182 175 169 166 158 150 150 144 136 139 131 110 107 113
317 312 314 310 311 316 320 320 326 327 327 327 326 324 324 323 312 310 301 282 266 262 202 193 198 191 184 183 184 184 175 170 166 164 156 156 151 143 141 131 129 140 136
319 313 307 308 306 301 304 310 312 319 322 324 322 322 323 323 317 309 312 298 257 214 204 204 202 194 181 183 176 171 167 167 166 164 158 157 152 144 141 139 150 143 153
312 312 311 307 305 302 302 307 316 314 318 318 317 317 318 317 318 313 302 307 284 234 213 205 201 184 178 174 168 166 163 159 157 151 150 152 144 144 147 148 151 158 171
317 320 321 315 310 302 313 312 311 310 312 308 312 313 314 315 316 317 303 294 286 280 237 211 183 173 178 178 179 169 165 164 160 154 150 149 137 131 133 126 137 171 169
314 318 323 317 307 305 312 308 310 305 302 304 305 308 311 313 313 310 306 282 253 257 252 249 186 181 177 175 179 174 168 161 159 151 147 141 134 129 129 121 119 105 78
312 315 311 308 300 301 302 300 300 299 298 297 301 302 308 309 307 303 298 280 228 213 218 197 204 193 190 179 175 172 160 157 152 154 150 141 143 143 139 137 153 157 153
309 306 307 304 303 296 295 295 295 296 296 297 299 299 304 303 301 296 292 277 247 209 217 218 192 206 182 170 163 162 154 149 144 145 145 143 140 143 146 149 148 151 146
298 298 302 300 294 294 295 293 290 291 290 293 297 299 300 297 295 292 287 274 236 231 202 207 200 183 171 171 167 160 150 147 143 138 142 143 141 145 153 148 149 151 160
298 297 296 291 289 287 286 284 284 283 287 293 295 296 297 293 291 287 284 284 231 215 198 191 168 176 161 171 180 166 160 152 143 142 140 135 137 146 162 159 159 152 142
299 297 295 291 292 291 289 287 288 289 293 293 294 295 296 293 289 287 286 280 224 218 199 181 167 170 160 160 166 177 153 144 139 136 131 132 137 147 142 156 115 125 141
298 298 296 294 293 293 291 292 291 297 294 293 293 294 295 294 292 290 292 277 225 202 188 180 174 156 150 147 141 134 134 130 120 127 131 133 134 134 127 121 128 151 148
297 299 297 292 289 292 293 294 297 298 294 293 293 294 293 295 295 292 288 256 209 187 172 169 156 147 153 146 139 136 128 116 112 121 128 131 138 146 128 136 152 150 150
293 295 294 290 288 294 294 294 298 306 299 293 294 295 294 295 293 293 290 251 227 201 184 179 164 156 164 168 157 149 139 131 131 126 125 132 142 140 147 158 152 145 142
300 300 296 292 290 295 304 310 320 316 304 297 298 296 298 296 288 284 273 2 177 100 73 157 164 149 143 146 144 128 124 126 131 128 138 145 148 156 156 153 158 146 142